Content
SEND FEEDBACK

Daily
Averages
Monthly
Summary
United States of America

LAKE TOMAHAWK, WISCONSIN


Home > North America > United States > Wisconsin
Elevation: 1630 feet     Latitude: 45 49N     Longitude: 089 33W

WEATHER
 
SELECT A DAY
Number of Records: 83,388;   Date Range: 1/1/95 - 12/26/14
 
SHARE

PRINT THIS DATA

[ ← Previous Day ]
WEATHER ALMANAC - JANUARY 31, 2013
[ Next Day → ]
[ °C ]   °F
Weather ElementAverageHighLow
Temperature8.3 °F12.2 °F (12:35 am)3.2 °F (10:35 pm)
Dewpoint1.2 °F8.6 °F (12:35 am)-4 °F (10:35 pm)
Humidity73 %85 % (12:35 am)62 % (12:35 pm)
Barometer29.70 in29.95 in (11:55 pm)29.47 in (12:35 am)
Wind Speed10.4 mph18.4 mph (11:35 am)
Wind Gust24.2 mph (11:35 am)
Weather ElementAverage
Visibility7.6 mi
Wind DirectionWNW (307 °)

Weather ElementTotal
Precipitation---
Heating Degree Days57.3 (Base 65)
Averaged from 70 records on January 31, 2013
WEATHER CONDITIONS BREAKOUT
WIND DIRECTION BREAKOUT
WEATHER BY HOUR - JANUARY 31, 2013
[ °C ]   °F
Local TimeTemperatureDewpointHumidityBarometerVisibilityWind DirectionWind SpeedGust SpeedPrecipitationEventsConditions
12:35 AM12.2 °F8.6 °F85 %29.47 in1.8 miNW (320°)9.2 mphSnowLight Snow
12:55 AM12.2 °F8.6 °F85 %29.47 in1.8 miNW (320°)9.2 mphSnowLight Snow
1:15 AM12.2 °F8.6 °F85 %29.48 in1.2 miNW (310°)8.1 mphSnowLight Snow
1:35 AM12.2 °F6.8 °F79 %29.49 in2.5 miNW (310°)8.1 mphSnowLight Snow
1:55 AM12.2 °F6.8 °F79 %29.50 in4.0 miNW (310°)8.1 mphSnowLight Snow
2:15 AM12.2 °F6.8 °F79 %29.50 in3.0 miNW (310°)8.1 mphSnowLight Snow
2:35 AM12.2 °F6.8 °F79 %29.51 in3.0 miWNW (300°)10.4 mphSnowLight Snow
2:55 AM12.2 °F6.8 °F79 %29.51 in3.0 miNW (310°)11.5 mphSnowLight Snow
3:15 AM12.2 °F6.8 °F79 %29.51 in5.0 miWNW (300°)11.5 mph18.4 mphSnowLight Snow
3:35 AM10.4 °F5.0 °F79 %29.52 in5.0 miNW (310°)10.4 mph17.3 mphSnowLight Snow
3:55 AM10.4 °F3.2 °F73 %29.53 in7.0 miWNW (300°)5.8 mphSnowLight Snow
4:15 AM10.4 °F3.2 °F73 %29.53 in10.0 miNW (310°)10.4 mphOvercast
4:35 AM10.4 °F3.2 °F73 %29.53 in10.0 miWNW (300°)10.4 mphOvercast
4:55 AM10.4 °F3.2 °F73 %29.54 in10.0 miNW (310°)9.2 mph16.1 mphOvercast
5:15 AM8.6 °F3.2 °F79 %29.55 in10.0 miWNW (300°)6.9 mphMostly Cloudy
5:35 AM6.8 °F1.4 °F79 %29.55 in10.0 miWNW (300°)6.9 mphMostly Cloudy
5:55 AM6.8 °F1.4 °F79 %29.56 in10.0 miWNW (290°)8.1 mphScattered Clouds
6:15 AM5.0 °F1.4 °F85 %29.56 in10.0 miWNW (290°)9.2 mphClear
6:35 AM5.0 °F1.4 °F85 %29.57 in10.0 miNW (310°)8.1 mphClear
6:55 AM5.0 °F-0.4 °F78 %29.57 in10.0 miWNW (300°)8.1 mphClear
7:15 AM5.0 °F-0.4 °F78 %29.58 in10.0 miWNW (300°)6.9 mphClear
7:35 AM5.0 °F-0.4 °F78 %29.59 in10.0 miWNW (300°)6.9 mphClear
7:55 AM5.0 °F-0.4 °F78 %29.60 in10.0 miWNW (300°)5.8 mphClear
8:15 AM5.0 °F-0.4 °F78 %29.61 in10.0 miWNW (290°)6.9 mphClear
8:35 AM5.0 °F-0.4 °F78 %29.61 in10.0 miWNW (290°)9.2 mphClear
8:55 AM5.0 °F-0.4 °F78 %29.62 in10.0 miWNW (300°)8.1 mphClear
9:15 AM6.8 °F1.4 °F79 %29.63 in10.0 miWNW (290°)8.1 mphClear
9:35 AM8.6 °F1.4 °F73 %29.64 in10.0 miNW (310°)12.7 mph17.3 mphClear
9:55 AM10.4 °F3.2 °F73 %29.64 in7.0 miWNW (300°)12.7 mph19.6 mphClear
10:15 AM10.4 °F3.2 °F73 %29.66 in10.0 miNW (310°)10.4 mphClear
10:35 AM10.4 °F3.2 °F73 %29.67 in7.0 miWNW (300°)9.2 mph18.4 mphScattered Clouds
10:55 AM12.2 °F3.2 °F67 %29.67 in7.0 miNW (310°)9.2 mph20.7 mphMostly Cloudy
11:15 AM12.2 °F3.2 °F67 %29.68 in7.0 miNW (320°)12.7 mph23.0 mphMostly Cloudy
11:35 AM12.2 °F3.2 °F67 %29.68 in7.0 miNNW (330°)18.4 mph24.2 mphMostly Cloudy
11:55 AM12.2 °F3.2 °F67 %29.68 in7.0 miNW (310°)12.7 mph21.9 mphMostly Cloudy
12:15 PM12.2 °F3.2 °F67 %29.69 in5.0 miNW (310°)18.4 mph24.2 mphHaze
12:35 PM12.2 °F1.4 °F62 %29.70 in5.0 miNW (310°)15.0 mph24.2 mphHaze
12:55 PM12.2 °F3.2 °F67 %29.70 in4.0 miNW (320°)15.0 mph23.0 mphHaze
1:15 PM12.2 °F1.4 °F62 %29.71 in10.0 miNW (310°)11.5 mph21.9 mphMostly Cloudy
1:35 PM12.2 °F1.4 °F62 %29.72 in7.0 miNW (320°)15.0 mph21.9 mphMostly Cloudy
1:55 PM12.2 °F1.4 °F62 %29.73 in7.0 miNW (320°)11.5 mph20.7 mphMostly Cloudy
2:15 PM12.2 °F1.4 °F62 %29.74 in7.0 miNNW (330°)16.1 mph23.0 mphMostly Cloudy
2:35 PM12.2 °F1.4 °F62 %29.74 in5.0 miNW (310°)15.0 mph23.0 mphHaze
2:55 PM10.4 °F-0.4 °F62 %29.76 in7.0 miNW (320°)11.5 mph19.6 mphMostly Cloudy
3:15 PM10.4 °F-0.4 °F62 %29.77 in10.0 miNNW (330°)10.4 mph24.2 mphScattered Clouds
3:35 PM10.4 °F-0.4 °F62 %29.78 in7.0 miNW (320°)17.3 mph24.2 mphMostly Cloudy
3:55 PM10.4 °F-0.4 °F62 %29.79 in7.0 miNW (320°)11.5 mph21.9 mphScattered Clouds
4:15 PM10.4 °F-0.4 °F62 %29.80 in7.0 miNW (320°)12.7 mphScattered Clouds
4:35 PM8.6 °F-0.4 °F67 %29.81 in5.0 miNW (310°)11.5 mph18.4 mphHaze
4:55 PM6.8 °F-2.2 °F67 %29.82 in7.0 miNW (320°)9.2 mphScattered Clouds
5:15 PM6.8 °F-0.4 °F72 %29.83 in5.0 miWNW (300°)6.9 mphSnowLight Snow
5:35 PM6.8 °F-0.4 °F72 %29.84 in5.0 miWNW (300°)9.2 mph16.1 mphHaze
5:55 PM5.0 °F-0.4 °F78 %29.85 in5.0 miWNW (300°)9.2 mphSnowLight Snow
6:15 PM5.0 °F-0.4 °F78 %29.85 in7.0 miWNW (300°)11.5 mphMostly Cloudy
6:35 PM5.0 °F-0.4 °F78 %29.86 in10.0 miNW (310°)9.2 mphMostly Cloudy
6:55 PM5.0 °F-2.2 °F72 %29.87 in10.0 miWNW (300°)10.4 mphMostly Cloudy
7:15 PM5.0 °F-0.4 °F78 %29.88 in10.0 miWNW (300°)10.4 mph16.1 mphScattered Clouds
7:35 PM5.0 °F-0.4 °F78 %29.88 in10.0 miNW (310°)9.2 mph18.4 mphScattered Clouds
8:15 PM5.0 °F-2.2 °F72 %29.90 in10.0 miWNW (300°)8.1 mph17.3 mphMostly Cloudy
8:35 PM5.0 °F-2.2 °F72 %29.90 in10.0 miWNW (290°)10.4 mph16.1 mphMostly Cloudy
8:55 PM5.0 °F-2.2 °F72 %29.91 in10.0 miWNW (300°)12.7 mph17.3 mphMostly Cloudy
9:15 PM5.0 °F-2.2 °F72 %29.91 in10.0 miWNW (300°)11.5 mph16.1 mphMostly Cloudy
9:35 PM5.0 °F-2.2 °F72 %29.92 in10.0 miNW (310°)10.4 mphOvercast
9:55 PM5.0 °F-2.2 °F72 %29.93 in10.0 miNW (310°)10.4 mph16.1 mphOvercast
10:15 PM5.0 °F-2.2 °F72 %29.93 in10.0 miWNW (300°)10.4 mph16.1 mphOvercast
10:35 PM3.2 °F-4.0 °F72 %29.93 in10.0 miNW (310°)8.1 mphOvercast
10:55 PM3.2 °F-4.0 °F72 %29.94 in10.0 miWNW (300°)10.4 mphOvercast
11:15 PM3.2 °F-4.0 °F72 %29.94 in5.0 miWNW (300°)10.4 mph16.1 mphHaze
11:35 PM3.2 °F-4.0 °F72 %29.94 in7.0 miWNW (300°)10.4 mphOvercast
11:55 PM3.2 °F-4.0 °F72 %29.95 in10.0 miNW (310°)8.1 mph17.3 mphMostly Cloudy
Hourly data recorded from KARV, located miles away from Lake Tomahawk, Wisconsin







STORIES FROM OUR PARTNERS